| time (UTC) | temp F | wind direction | speed MPH | gust MPH | rain 1hr in | rain 24hr in | rain mn in | humidity % | barometer mb |
| 20260507111036 | 51 | 0.0 | 1.0 | 0.00 | 0.00 | 0.00 | 92 | 1016.0 | |
| 20260507110016 | 51 | 44 | 0.0 | 2.0 | 0.00 | 0.00 | 0.00 | 92 | 1016.1 |
| 20260507104036 | 51 | 39 | 1.0 | 3.0 | 0.00 | 0.00 | 0.00 | 92 | 1016.2 |
| 20260507103016 | 51 | 39 | 1.0 | 2.0 | 0.00 | 0.00 | 0.00 | 92 | 1016.2 |
| 20260507102033 | 51 | 39 | 1.0 | 3.0 | 0.00 | 0.00 | 0.00 | 92 | 1016.4 |
| 20260507100038 | 51 | 24 | 1.0 | 3.0 | 0.00 | 0.00 | 0.00 | 91 | 1016.5 |
| 20260507095038 | 52 | 0.0 | 0.0 | 0.00 | 0.00 | 0.00 | 91 | 1016.6 | |
| 20260507094016 | 52 | 24 | 0.0 | 2.0 | 0.00 | 0.00 | 0.00 | 91 | 1016.7 |
| 20260507093057 | 52 | 24 | 1.0 | 2.0 | 0.00 | 0.00 | 0.00 | 91 | 1016.6 |
| 20260507092016 | 52 | 24 | 1.0 | 2.0 | 0.00 | 0.00 | 0.00 | 91 | 1016.8 |
| 20260507091036 | 52 | 24 | 0.0 | 2.0 | 0.00 | 0.00 | 0.00 | 91 | 1016.9 |
| 20260507090016 | 52 | 24 | 1.0 | 2.0 | 0.00 | 0.00 | 0.00 | 91 | 1016.9 |
| 20260507085016 | 53 | 0.0 | 0.0 | 0.00 | 0.00 | 0.00 | 91 | 1017.0 | |
| 20260507084015 | 53 | 0.0 | 0.0 | 0.00 | 0.00 | 0.00 | 90 | 1017.1 | |
| 20260507083016 | 53 | 10 | 0.0 | 2.0 | 0.00 | 0.00 | 0.00 | 90 | 1017.3 |
| 20260507082036 | 53 | 24 | 0.0 | 2.0 | 0.00 | 0.00 | 0.00 | 90 | 1017.3 |
| 20260507081015 | 53 | 24 | 1.0 | 3.0 | 0.00 | 0.00 | 0.00 | 89 | 1017.4 |
| 20260507080016 | 54 | 7 | 1.0 | 3.0 | 0.00 | 0.00 | 0.00 | 89 | 1017.4 |
| 20260507075036 | 54 | 14 | 2.0 | 3.0 | 0.00 | 0.00 | 0.00 | 89 | 1017.4 |
| 20260507074015 | 54 | 0.0 | 0.0 | 0.00 | 0.00 | 0.00 | 89 | 1017.4 | |
| 20260507072015 | 55 | 53 | 0.0 | 2.0 | 0.00 | 0.00 | 0.00 | 89 | 1017.6 |
| 20260507071015 | 55 | 29 | 0.0 | 2.0 | 0.00 | 0.00 | 0.00 | 88 | 1017.7 |
| 20260507070036 | 55 | 30 | 0.0 | 2.0 | 0.00 | 0.00 | 0.00 | 88 | 1017.7 |
| 20260507065015 | 56 | 29 | 0.0 | 2.0 | 0.00 | 0.00 | 0.00 | 88 | 1017.7 |
| 20260507064015 | 56 | 58 | 1.0 | 2.0 | 0.00 | 0.00 | 0.00 | 88 | 1017.8 |
| 20260507062016 | 56 | 0.0 | 0.0 | 0.00 | 0.00 | 0.00 | 87 | 1017.6 | |
| 20260507061102 | 57 | 0.0 | 0.0 | 0.00 | 0.00 | 0.00 | 86 | 1017.6 | |
| 20260507060015 | 57 | 0.0 | 0.0 | 0.00 | 0.00 | 0.00 | 86 | 1017.6 | |
| 20260507054039 | 57 | 71 | 0.0 | 2.0 | 0.00 | 0.00 | 0.00 | 86 | 1017.8 |
| 20260507053027 | 58 | 32 | 0.0 | 2.0 | 0.00 | 0.00 | 0.00 | 85 | 1017.8 |
| 20260507052035 | 58 | 71 | 1.0 | 2.0 | 0.00 | 0.00 | 0.00 | 85 | 1017.8 |
| 20260507051015 | 58 | 95 | 0.0 | 2.0 | 0.00 | 0.00 | 0.00 | 84 | 1017.7 |
| 20260507050057 | 58 | 102 | 1.0 | 3.0 | 0.00 | 0.00 | 0.00 | 84 | 1017.6 |
| 20260507045036 | 59 | 109 | 1.0 | 2.0 | 0.00 | 0.00 | 0.00 | 83 | 1017.6 |
| 20260507044015 | 59 | 109 | 0.0 | 2.0 | 0.00 | 0.00 | 0.00 | 83 | 1017.5 |
| 20260507043015 | 59 | 121 | 0.0 | 2.0 | 0.00 | 0.00 | 0.00 | 82 | 1017.5 |
| 20260507042015 | 60 | 120 | 1.0 | 3.0 | 0.00 | 0.00 | 0.00 | 81 | 1017.5 |
| 20260507041035 | 60 | 203 | 0.0 | 1.0 | 0.00 | 0.00 | 0.00 | 81 | 1017.5 |
| 20260507040015 | 60 | 212 | 1.0 | 5.0 | 0.00 | 0.00 | 0.00 | 80 | 1017.3 |
| 20260507035041 | 61 | 208 | 2.0 | 5.0 | 0.00 | 0.00 | 0.00 | 80 | 1017.2 |
| 20260507034038 | 61 | 186 | 1.0 | 5.0 | 0.00 | 0.00 | 0.00 | 80 | 1017.0 |
| 20260507033038 | 62 | 187 | 1.0 | 4.0 | 0.00 | 0.00 | 0.00 | 79 | 1017.1 |
| 20260507032123 | 62 | 206 | 2.0 | 4.0 | 0.00 | 0.00 | 0.00 | 78 | 1017.0 |
| 20260507031017 | 62 | 187 | 3.0 | 7.0 | 0.00 | 0.00 | 0.00 | 77 | 1016.9 |
| 20260507030057 | 63 | 189 | 2.0 | 6.0 | 0.00 | 0.00 | 0.00 | 76 | 1016.8 |
| 20260507025035 | 63 | 206 | 3.0 | 6.0 | 0.00 | 0.00 | 0.00 | 74 | 1016.8 |
| 20260507024038 | 64 | 191 | 3.0 | 7.0 | 0.00 | 0.00 | 0.00 | 71 | 1016.7 |
| 20260507023017 | 65 | 202 | 4.0 | 7.0 | 0.00 | 0.00 | 0.00 | 69 | 1016.6 |
| 20260507021058 | 66 | 201 | 3.0 | 8.0 | 0.00 | 0.00 | 0.00 | 65 | 1016.4 |
| 20260507020119 | 67 | 187 | 5.0 | 10.0 | 0.00 | 0.00 | 0.00 | 62 | 1016.4 |
| 20260507015017 | 67 | 199 | 3.0 | 8.0 | 0.00 | 0.00 | 0.00 | 60 | 1016.2 |
| 20260507014038 | 68 | 189 | 4.0 | 10.0 | 0.00 | 0.00 | 0.00 | 59 | 1016.2 |
| 20260507013059 | 69 | 181 | 5.0 | 9.0 | 0.00 | 0.00 | 0.00 | 58 | 1016.1 |
| 20260507012017 | 69 | 184 | 5.0 | 13.0 | 0.00 | 0.00 | 0.00 | 58 | 1016.1 |
| 20260507011058 | 70 | 193 | 4.0 | 9.0 | 0.00 | 0.00 | 0.00 | 58 | 1016.0 |
| 20260507010037 | 70 | 216 | 5.0 | 12.0 | 0.00 | 0.00 | 0.00 | 58 | 1015.8 |
| 20260507005018 | 71 | 205 | 6.0 | 11.0 | 0.00 | 0.00 | 0.00 | 57 | 1015.9 |
| 20260507004018 | 71 | 194 | 5.0 | 12.0 | 0.00 | 0.00 | 0.00 | 57 | 1015.8 |
| 20260507003058 | 70 | 200 | 7.0 | 13.0 | 0.00 | 0.00 | 0.00 | 58 | 1015.8 |
| 20260507002018 | 71 | 196 | 7.0 | 13.0 | 0.00 | 0.00 | 0.00 | 59 | 1015.7 |
| 20260507001017 | 71 | 204 | 5.0 | 12.0 | 0.00 | 0.00 | 0.00 | 59 | 1015.6 |
| 20260507000041 | 72 | 210 | 6.0 | 12.0 | 0.00 | 0.00 | 0.00 | 58 | 1015.5 |
| 20260506235037 | 72 | 201 | 7.0 | 13.0 | 0.00 | 0.00 | 0.00 | 58 | 1015.5 |
| 20260506234058 | 73 | 217 | 8.0 | 14.0 | 0.00 | 0.00 | 0.00 | 58 | 1015.4 |
| 20260506233019 | 73 | 219 | 7.0 | 13.0 | 0.00 | 0.00 | 0.00 | 58 | 1015.5 |
| 20260506232018 | 73 | 208 | 8.0 | 17.0 | 0.00 | 0.00 | 0.00 | 57 | 1015.5 |
| 20260506231118 | 73 | 212 | 7.0 | 14.0 | 0.00 | 0.00 | 0.00 | 57 | 1015.5 |
| 20260506230038 | 73 | 223 | 8.0 | 15.0 | 0.00 | 0.00 | 0.00 | 56 | 1015.5 |
| 20260506225139 | 74 | 209 | 8.0 | 14.0 | 0.00 | 0.00 | 0.00 | 57 | 1015.5 |
| 20260506224039 | 74 | 219 | 8.0 | 15.0 | 0.00 | 0.00 | 0.00 | 57 | 1015.6 |
| 20260506223018 | 73 | 210 | 7.0 | 15.0 | 0.00 | 0.00 | 0.00 | 58 | 1015.7 |
| 20260506222037 | 73 | 215 | 7.0 | 16.0 | 0.00 | 0.00 | 0.00 | 59 | 1015.8 |
| 20260506221020 | 74 | 214 | 8.0 | 17.0 | 0.00 | 0.00 | 0.00 | 58 | 1016.0 |
| 20260506215017 | 73 | 226 | 7.0 | 14.0 | 0.00 | 0.00 | 0.00 | 59 | 1016.2 |
| 20260506214020 | 74 | 211 | 8.0 | 15.0 | 0.00 | 0.00 | 0.00 | 58 | 1016.3 |
| 20260506213017 | 74 | 205 | 8.0 | 17.0 | 0.00 | 0.00 | 0.00 | 58 | 1016.4 |
| 20260506212017 | 75 | 216 | 8.0 | 15.0 | 0.00 | 0.00 | 0.00 | 57 | 1016.4 |
| 20260506211017 | 74 | 197 | 6.0 | 14.0 | 0.00 | 0.00 | 0.00 | 57 | 1016.4 |
| 20260506210104 | 74 | 218 | 6.0 | 12.0 | 0.00 | 0.00 | 0.00 | 57 | 1016.4 |
| 20260506205017 | 74 | 212 | 8.0 | 15.0 | 0.00 | 0.00 | 0.00 | 58 | 1016.4 |
| 20260506204017 | 73 | 208 | 8.0 | 14.0 | 0.00 | 0.00 | 0.00 | 58 | 1016.4 |
| 20260506203017 | 73 | 223 | 6.0 | 14.0 | 0.00 | 0.00 | 0.00 | 59 | 1016.4 |
| 20260506202027 | 73 | 211 | 7.0 | 14.0 | 0.00 | 0.00 | 0.00 | 58 | 1016.6 |
| 20260506201017 | 73 | 202 | 7.0 | 14.0 | 0.00 | 0.00 | 0.00 | 59 | 1016.7 |
| 20260506200016 | 73 | 223 | 7.0 | 15.0 | 0.00 | 0.00 | 0.00 | 57 | 1016.9 |
| 20260506195017 | 74 | 199 | 8.0 | 17.0 | 0.00 | 0.00 | 0.00 | 55 | 1017.0 |
| 20260506194058 | 75 | 205 | 7.0 | 13.0 | 0.00 | 0.00 | 0.00 | 53 | 1017.1 |
| 20260506192017 | 74 | 244 | 4.0 | 9.0 | 0.00 | 0.00 | 0.00 | 50 | 1017.4 |
| 20260506191037 | 73 | 151 | 2.0 | 8.0 | 0.00 | 0.00 | 0.00 | 52 | 1017.6 |
| 20260506190140 | 72 | 175 | 3.0 | 7.0 | 0.00 | 0.00 | 0.00 | 54 | 1017.7 |
| 20260506185017 | 71 | 183 | 2.0 | 4.0 | 0.00 | 0.00 | 0.00 | 53 | 1017.8 |
| 20260506184017 | 71 | 302 | 3.0 | 7.0 | 0.00 | 0.00 | 0.00 | 53 | 1017.9 |
| 20260506183016 | 71 | 244 | 3.0 | 7.0 | 0.00 | 0.00 | 0.00 | 55 | 1018.0 |
| 20260506181016 | 71 | 249 | 3.0 | 7.0 | 0.00 | 0.00 | 0.00 | 55 | 1018.2 |
| 20260506180037 | 70 | 82 | 3.0 | 8.0 | 0.00 | 0.00 | 0.00 | 57 | 1018.3 |
| 20260506174023 | 67 | 239 | 3.0 | 7.0 | 0.00 | 0.00 | 0.00 | 59 | 1018.4 |
| 20260506173104 | 67 | 169 | 1.0 | 4.0 | 0.00 | 0.00 | 0.00 | 60 | 1018.4 |
| 20260506172038 | 67 | 187 | 2.0 | 4.0 | 0.00 | 0.00 | 0.00 | 60 | 1018.5 |
| 20260506171124 | 66 | 158 | 2.0 | 4.0 | 0.00 | 0.00 | 0.00 | 60 | 1018.5 |
| 20260506170159 | 65 | 64 | 1.0 | 5.0 | 0.00 | 0.00 | 0.00 | 62 | 1018.5 |
| 20260506165035 | 65 | 121 | 2.0 | 4.0 | 0.00 | 0.00 | 0.00 | 64 | 1018.5 |
| 20260506164113 | 64 | 197 | 2.0 | 7.0 | 0.00 | 0.00 | 0.00 | 65 | 1018.5 |
| 20260506163037 | 64 | 170 | 3.0 | 6.0 | 0.00 | 0.00 | 0.00 | 67 | 1018.5 |
| 20260506162016 | 63 | 224 | 2.0 | 6.0 | 0.00 | 0.00 | 0.00 | 69 | 1018.5 |
| 20260506161017 | 63 | 227 | 3.0 | 6.0 | 0.00 | 0.00 | 0.00 | 70 | 1018.5 |
| 20260506160017 | 62 | 176 | 2.0 | 6.0 | 0.00 | 0.00 | 0.00 | 70 | 1018.4 |
| 20260506155023 | 62 | 57 | 1.0 | 3.0 | 0.00 | 0.00 | 0.00 | 71 | 1018.4 |
| 20260506154016 | 61 | 192 | 1.0 | 3.0 | 0.00 | 0.00 | 0.00 | 73 | 1018.5 |
| 20260506153016 | 60 | 114 | 2.0 | 7.0 | 0.00 | 0.00 | 0.00 | 75 | 1018.5 |
| 20260506152047 | 59 | 53 | 2.0 | 5.0 | 0.00 | 0.00 | 0.00 | 78 | 1018.6 |
| 20260506151017 | 58 | 47 | 2.0 | 4.0 | 0.00 | 0.00 | 0.00 | 80 | 1018.6 |
| 20260506150016 | 56 | 56 | 4.0 | 6.0 | 0.00 | 0.00 | 0.00 | 84 | 1018.6 |
| 20260506145017 | 55 | 62 | 2.0 | 6.0 | 0.00 | 0.00 | 0.00 | 88 | 1018.5 |
| 20260506144037 | 53 | 57 | 4.0 | 7.0 | 0.00 | 0.00 | 0.00 | 91 | 1018.5 |
| 20260506143118 | 52 | 46 | 2.0 | 7.0 | 0.00 | 0.00 | 0.00 | 94 | 1018.5 |
| 20260506141119 | 50 | 7 | 2.0 | 3.0 | 0.00 | 0.00 | 0.00 | 95 | 1018.3 |
| 20260506140117 | 49 | 12 | 1.0 | 3.0 | 0.00 | 0.00 | 0.00 | 95 | 1018.2 |
| 20260506135017 | 47 | 358 | 1.0 | 3.0 | 0.00 | 0.00 | 0.00 | 95 | 1018.2 |
| 20260506134057 | 47 | 352 | 2.0 | 3.0 | 0.00 | 0.00 | 0.00 | 94 | 1018.1 |
| 20260506133100 | 47 | 352 | 2.0 | 3.0 | 0.00 | 0.00 | 0.00 | 94 | 1018.1 |
| 20260506132021 | 47 | 352 | 1.0 | 2.0 | 0.00 | 0.00 | 0.00 | 94 | 1018.0 |
| 20260506131122 | 47 | 352 | 1.0 | 2.0 | 0.00 | 0.00 | 0.00 | 94 | 1017.9 |
| 20260506130016 | 47 | 352 | 1.0 | 2.0 | 0.00 | 0.00 | 0.00 | 93 | 1017.9 |
| 20260506125037 | 47 | 351 | 2.0 | 3.0 | 0.00 | 0.00 | 0.00 | 94 | 1017.8 |
| 20260506124016 | 47 | 353 | 2.0 | 3.0 | 0.00 | 0.00 | 0.00 | 93 | 1017.8 |
| 20260506123016 | 48 | 28 | 1.0 | 2.0 | 0.00 | 0.00 | 0.00 | 94 | 1017.6 |
| 20260506121016 | 48 | 16 | 2.0 | 3.0 | 0.00 | 0.00 | 0.00 | 94 | 1017.7 |
| 20260506120105 | 48 | 27 | 1.0 | 3.0 | 0.00 | 0.00 | 0.00 | 93 | 1017.7 |
| 20260506115036 | 48 | 13 | 2.0 | 2.0 | 0.00 | 0.00 | 0.00 | 93 | 1017.7 |
| 20260506114016 | 48 | 46 | 1.0 | 2.0 | 0.00 | 0.01 | 0.00 | 93 | 1017.7 |
| 20260506113057 | 48 | 45 | 2.0 | 3.0 | 0.00 | 0.01 | 0.00 | 93 | 1017.7 |
| 20260506112117 | 48 | 3 | 2.0 | 4.0 | 0.00 | 0.01 | 0.00 | 93 | 1017.6 |